Weather in Ivankovo

Russia / Ryazan Oblast     54°30′24″N   40°50′37″E
temp.,
°C
wind,
m/s
gust,
m/s
humid.,
%
clouds,
%
prec.,
mm/h
press.,
hPa
HPBL,
m
28 february, sun
sun2800:00−12nnw339522 0.0 101344
03:00−13nnw239528 0.0 101425
06:00−12nw239685 0.1 101561
09:00−10nnw359482 0.1 1015272
12:00−7nnw348889 0.0 1015453
15:00−5nnw348995 0.1 1016533
18:00−6nnw2494100 0.1 1017126
21:00−6n2595100 0.1 1019159
1 march, mon
mon100:00−8ne2295100 0.1 102128
03:00−12nnw119694 0.1 102321
06:00−13nnw129672 0.0 102321
09:00−9wsw119574 0.0 102543
12:00−4sw359592 0.0 1023276
15:00−2wsw579389 0.1 1022480
18:00−1wsw5109195 0.0 1020511
21:00−1wsw6129397 0.1 1017560
2 march, tue
tue200:000wsw71397100 0.6 1014603
03:00+1wsw71392100 0.6 1011664
06:00+1w71398100 0.2 1007651
09:00+1wnw71398100 0.6 1006630
12:00+1nw61110098 0.2 1007799
15:00+1nw6119195 0.4 1007843
18:000wnw5128885 0.1 1007650
21:00−2nw6138893 0.2 1009526
3 march, wed
wed300:00−3nw5119594 0.1 1009467
03:00−4nw5129296 0.3 1010607
06:00−4nnw6128996 0.1 1011755
09:00−4nnw7128598 0.1 1013842
12:00−2nnw7118396 0.0 10151087
15:00−1nnw6118397 0.2 10161369
18:00−5nw498589 0.1 1016158
21:00−6wnw349388 0.1 101867
4 march, thu
thu400:00−5wnw379296 0.0 1018149
03:00−6wsw479175 0.0 1017100
06:00−6sw5109422 0.0 1015215
09:00−4wsw6129160 0.0 1014425
12:00−1wsw81387100 0.0 1011650
15:000wsw8148799 0.0 1009727
18:00−1sw7168636 0.0 1006628
21:00−1wsw7168622 0.0 1005567